Regional Weather Roundup
Issued by NWS

Home | Current Version | Previous Version | Text Only | Print | Product List | Glossary Off
Versions: 1 2 3 4 5 6 7 8 9 10 11 12 13 14 15 16 17 18 19 20 21 22 23 24 25 26 27 28 29 30 31 32 33 34 35 36 37 38 39 40 41 42 43 44 45 46 47 48 49 50

000
ASUS43 KBIS 210210
RWRND
NORTH DAKOTA REGIONAL WEATHER ROUNDUP
NATIONAL WEATHER SERVICE EASTERN NORTH DAKOTA/GRAND FORKS ND
900 PM CDT SUN MAY 20 2018

  NOTE: "FAIR" INDICATES FEW OR NO CLOUDS BELOW 12,000 FEET WITH NO
  SIGNIFICANT WEATHER AND/OR OBSTRUCTIONS TO VISIBILITY.

NDZ001>003-009>011-017-210300-
...NORTHWEST NORTH DAKOTA...

CITY           SKY/WX    TMP DP  RH WIND       PRES   REMARKS
WILLISTON      FAIR      67  31  26 S9        30.02F
MINOT          FAIR      68  30  24 S8        30.06F
MINOT AFB      FAIR      67  31  26 S10       30.05F
$$

NDZ018>021-031>035-040>046-210300-
...SOUTHWEST NORTH DAKOTA...

CITY           SKY/WX    TMP DP  RH WIND       PRES   REMARKS
BISMARCK       FAIR      65  37  35 S6        30.10F
DICKINSON      FAIR      58  31  35 SE12      30.05F
GARRISON         N/A     61  34  36 S7        30.08F
HETTINGER      FAIR      57  36  45 SE10      30.10S
$$

NDZ004>008-012>016-024-026-027-054-210300-
...NORTHEAST NORTH DAKOTA...

CITY           SKY/WX    TMP DP  RH WIND       PRES   REMARKS
GRAND FORKS    FAIR      64  39  39 SE7       30.11S
GRAND FORKS AF FAIR      64  36  35 SE7       30.11S
DEVILS LAKE    FAIR      63  45  51 SE5       30.12F
$$

NDZ022-023-025-028>030-036>039-047>053-210300-
...SOUTHEAST NORTH DAKOTA...

CITY           SKY/WX    TMP DP  RH WIND       PRES   REMARKS
JAMESTOWN      FAIR      62  37  39 E5        30.11F
FARGO          FAIR      64  40  41 NE6       30.11S
WAHPETON       FAIR      63  27  25 E6        30.12S
$$




USA.gov is the U.S. government's official web portal to all federal, state and local government web resources and services.